Regional Weather Roundup
Issued by NWS

Home | Current Version | Previous Version | Graphics & Text | Print | Product List | Glossary On
Versions: 1 2 3 4 5 6 7 8 9 10 11 12 13 14 15 16 17 18 19 20 21 22 23 24 25 26 27 28 29 30 31 32 33 34 35 36 37 38 39 40 41 42 43 44 45 46 47 48 49 50
259
ASUS43 KLSX 301357
RWRMO

WEATHER SUMMARY FOR MISSOURI
NATIONAL WEATHER SERVICE SPRINGFIELD MO
900 AM CDT MON MAY 30 2016

NOTE: "FAIR" INDICATES FEW OR NO CLOUDS BELOW 12,000 FEET WITH NO
       SIGNIFICANT WEATHER AND/OR OBSTRUCTIONS TO VISIBILITY.
       CURRENT SKY AND/OR WEATHER CONDITIONS ARE NOT AVAILABLE FOR
       CHILLICOTHE AND FARMINGTON.

MOZ001>031-035>038-043-044-053-054-301500-
...NORTHERN AND WESTERN MISSOURI...

CITY           SKY/WX    TMP DP  RH WIND       PRES   REMARKS
KANSAS CTY INT PTSUNNY   73  66  78 S6        30.05F
LEE`S SUMMIT   MOSUNNY   74  67  78 E5        30.06F
ST JOSEPH      SUNNY     74  65  73 VRB5      30.03F
CHILLICOTHE      N/A     76  68  76 CALM      30.07S

$$
MOZ066>068-077>081-088>096-101>105-301500-
...SOUTHWEST MISSOURI...

CITY           SKY/WX    TMP DP  RH WIND       PRES   REMARKS
SPRINGFIELD    SUNNY     76  64  66 SE6       30.09R
JOPLIN         PTSUNNY   74  65  73 S6        30.08R
BRANSON        PTSUNNY   73  66  78 CALM      30.11R

$$
MOZ032>034-039>042-045>050-055>058-069>072-301500-
...CENTRAL MISSOURI...

CITY           SKY/WX    TMP DP  RH WIND       PRES   REMARKS
COLUMBIA       NOT AVBL
JEFFERSON CITY SUNNY     73  66  78 VRB3      30.08F
ROLLA          SUNNY     75  66  73 SW3       30.09F
SEDALIA        SUNNY     76  67  73 SW3       30.08F
WARRENSBURG    PTSUNNY   72  66  83 CALM      30.07F

$$
MOZ051-052-059>065-301500-
...EAST CENTRAL MISSOURI...

CITY           SKY/WX    TMP DP  RH WIND       PRES   REMARKS
ST LOUIS INTL  PTSUNNY   80  65  59 W6        30.09S

$$
MOZ072>076-082>087-097>100-106>115-301500-
...SOUTH CENTRAL AND SOUTHEAST MISSOURI...

CITY           SKY/WX    TMP DP  RH WIND       PRES   REMARKS
CAPE GIRARDEAU SUNNY     75  65  70 CALM      30.09R
POPLAR BLUFF   SUNNY     76  67  73 N3        30.09R
WEST PLAINS    SUNNY     75  63  66 E3        30.13R

$$



USA.gov is the U.S. government's official web portal to all federal, state and local government web resources and services.